Theta_e
296 296 296 296 296 296 297 297 298 298 297 298 300 301 302 302 301 297 294 298 292 286 287 288 288 285 287 288 283 282 282 281 281 279 279 279 277 277 275 277 274 274 273 273 275 273 271 281 279 278 279 281 280 280
295 295 295 295 295 296 296 297 297 298 297 298 299 300 299 301 301 297 291 296 297 288 285 287 286 287 287 288 288 285 283 282 285 282 282 282 277 276 277 274 278 273 279 278 278 278 283 283 282 281 279 278 279 277
294 294 295 295 295 295 296 296 297 298 297 297 299 300 301 300 301 297 292 293 290 285 285 285 284 286 288 287 289 285 286 287 285 288 285 283 277 281 275 276 277 278 281 278 278 281 282 282 281 279 279 277 278 278
294 294 294 294 294 295 295 295 296 297 297 297 298 299 300 301 300 295 291 294 292 288 283 281 286 284 287 288 288 289 287 289 288 288 284 282 279 281 279 278 277 280 281 280 280 281 280 280 280 278 278 278 277 277
295 294 294 294 294 294 295 295 296 297 297 297 297 298 300 300 298 294 293 292 292 288 282 278 283 283 286 286 286 287 288 287 285 282 281 280 282 280 280 278 277 281 280 278 279 282 281 281 279 278 277 276 276 275
294 294 294 294 294 294 294 294 295 296 297 296 297 298 299 299 295 291 285 290 289 290 282 276 281 280 283 285 285 285 287 287 288 284 283 283 283 281 276 275 281 282 283 283 280 281 280 279 279 277 276 275 275 274
294 294 294 294 294 294 294 294 295 296 296 296 296 298 299 296 294 287 286 290 290 289 283 275 275 281 282 283 284 285 285 285 286 284 282 282 281 282 279 275 280 281 283 279 280 278 277 277 276 275 274 273 272 271
294 294 294 294 294 294 294 294 295 296 296 296 297 298 299 295 293 287 289 290 290 283 283 274 273 277 282 280 280 284 283 284 280 281 281 280 281 281 275 280 280 281 279 277 277 276 276 276 275 273 272 271 270 271
293 293 293 293 293 294 294 294 295 296 296 297 297 298 288 286 285 285 290 289 288 287 279 276 274 272 281 279 281 281 282 278 277 279 279 279 278 274 279 280 280 279 278 277 275 272 272 272 272 271 269 269 268 269
293 292 293 293 293 293 294 295 295 296 296 294 290 285 283 285 292 292 287 285 285 283 280 277 274 274 279 278 276 278 279 276 273 275 276 275 276 280 280 280 282 279 278 275 270 269 267 267 267 268 268 267 267 266
294 292 293 293 293 294 294 295 295 295 291 286 283 282 286 291 285 283 278 279 278 277 279 274 275 274 278 275 275 275 274 273 269 272 272 273 272 277 278 276 277 277 276 274 273 272 271 271 270 266 266 266 265 263
292 293 292 293 294 294 295 295 295 289 287 288 286 286 285 282 278 275 272 272 274 276 274 275 275 278 276 277 274 272 271 270 268 270 270 269 276 276 274 272 272 272 271 268 268 270 269 269 268 266 265 264 263 262
292 292 292 293 294 295 295 295 294 293 292 287 283 279 279 275 272 273 268 271 270 272 273 274 274 276 275 276 273 272 269 268 269 269 269 274 276 273 273 269 267 263 263 266 265 265 266 265 262 261 263 262 261 261
292 292 292 293 294 295 295 295 294 291 285 282 278 272 274 271 275 275 276 276 274 275 274 278 275 277 277 275 273 271 266 268 267 265 268 277 276 271 268 269 267 266 265 266 269 268 265 265 263 262 261 260 258 261
292 291 292 293 294 295 295 292 288 282 280 277 276 271 270 267 267 266 267 272 272 277 277 276 276 277 275 272 271 268 265 266 268 270 275 277 273 271 269 269 269 269 268 268 269 267 267 265 263 265 264 262 263 260
290 291 292 294 294 294 291 287 283 280 275 274 270 268 265 270 268 269 272 272 274 277 277 278 274 273 271 272 269 268 268 267 273 274 277 274 270 271 270 269 270 271 270 270 270 268 268 264 264 269 264 264 263 262
292 285 291 291 291 290 288 282 280 274 274 273 267 267 269 273 273 272 274 274 275 278 274 274 270 270 270 269 268 270 270 275 276 277 276 277 274 272 269 269 267 267 269 270 270 268 269 267 259 262 264 272 265 266
285 288 290 290 288 284 278 277 275 274 269 268 271 268 267 267 270 269 270 272 276 275 274 273 271 268 269 268 270 274 273 275 273 275 277 274 273 269 271 273 269 268 270 267 267 267 264 261 265 268 269 269 264 263
288 287 287 287 285 280 278 274 273 269 266 267 266 266 268 266 267 268 271 270 270 272 272 271 270 270 272 273 274 275 275 276 277 275 275 269 269 269 267 268 267 268 268 269 271 272 273 270 271 271 272 270 268 270
289 289 287 283 284 279 274 271 273 272 269 267 268 267 267 268 270 272 271 272 273 274 273 272 273 276 275 277 275 278 277 277 277 275 276 276 274 267 271 271 273 274 272 270 269 264 268 268 269 267 267 267 268 268
286 286 284 279 273 270 268 267 267 266 267 266 264 266 266 269 271 272 273 270 274 273 273 276 276 277 274 271 272 274 274 273 276 277 278 276 276 273 274 274 271 270 269 271 271 270 265 267 270 270 268 267 266 266
283 285 279 276 272 269 266 264 266 264 267 264 265 266 268 269 268 269 262 270 273 275 275 276 274 275 272 269 270 268 271 268 268 270 265 266 271 273 272 271 269 269 269 269 269 268 269 270 270 268 266 266 265 265
283 279 273 272 269 268 263 264 266 263 266 265 264 266 265 265 264 262 266 271 273 274 272 271 268 263 268 264 260 264 263 264 270 271 272 271 271 270 268 267 266 265 265 267 268 267 266 264 265 264 265 264 263 263
278 271 266 265 266 262 263 262 262 264 265 265 266 263 262 263 261 264 266 270 272 266 265 264 265 269 266 258 265 270 270 266 268 269 265 266 267 268 267 266 266 266 265 265 264 264 264 263 261 262 262 261 262 262
271 268 268 263 262 264 262 262 261 264 261 260 261 261 261 259 263 262 264 268 268 268 269 266 265 268 271 273 272 270 257 266 268 269 268 265 267 264 264 264 264 264 264 262 262 262 262 261 261 261 261 261 261 261
267 265 267 267 262 264 264 263 262 262 261 259 259 256 257 261 259 262 266 269 269 270 270 268 268 266 266 267 271 269 268 261 265 267 267 263 263 265 264 261 261 262 262 262 261 261 261 261 260 259 260 259 260 260
268 265 262 259 264 262 261 260 261 262 259 259 258 256 259 257 260 266 269 268 269 270 266 265 269 270 271 268 266 263 261 261 262 263 262 262 262 262 262 261 260 262 263 262 262 262 262 261 260 260 259 260 260 261
270 265 264 262 260 261 261 260 261 261 264 260 261 257 260 262 265 270 270 264 261 260 260 258 258 261 264 264 262 261 259 258 257 258 260 260 261 262 261 262 263 265 265 265 264 264 263 262 261 260 259 259 259 260
267 264 266 260 259 260 262 264 264 266 264 264 264 263 264 267 267 266 263 257 255 260 263 262 261 258 259 258 258 259 260 260 260 257 258 261 262 262 263 263 264 264 264 265 266 264 262 261 260 260 259 258 258 258
265 267 268 264 265 266 268 265 266 261 261 262 261 263 264 264 259 252 255 258 261 262 259 259 258 260 261 259 260 258 258 258 259 261 261 261 262 262 263 262 262 262 262 261 260 261 263 260 260 258 257 257 256 255
265 266 267 267 267 264 257 257 258 259 260 259 253 259 263 258 258 251 252 252 253 254 256 258 257 256 256 255 257 257 259 259 258 260 262 262 262 262 261 261 261 260 260 260 259 258 258 258 257 256 255 254 253 252
264 266 267 266 265 255 255 260 261 263 260 261 262 253 257 258 261 257 250 251 253 255 254 253 253 256 254 255 255 257 259 260 261 262 262 262 261 261 261 261 260 260 260 259 259 258 258 256 255 253 251 249 247 246
261 262 263 262 260 259 257 261 261 261 258 258 258 251 252 254 263 255 251 249 251 251 251 252 253 253 253 255 258 261 262 263 263 265 263 262 261 261 260 260 260 260 259 258 256 254 252 251 250 248 247 246 245 244
Wind_Speed
26 25 25 24 23 21 20 20 18 18 18 14 14 14 19 24 24 11 4 7 5 2 2 1 3 1 2 6 5 6 5 3 4 6 4 3 4 5 3 3 6 9 9 6 6 6 8 7 6 4 3 3 5 7
23 24 22 22 20 21 20 19 18 18 17 14 14 12 12 18 25 14 4 2 3 1 2 3 3 3 4 6 2 7 2 3 5 5 2 1 3 2 3 3 5 6 4 3 6 1 3 6 3 4 2 3 6 9
22 22 21 22 20 19 19 18 16 18 17 13 13 13 19 27 26 12 6 5 4 2 1 2 2 4 4 5 5 3 2 3 3 2 2 1 5 2 4 5 5 6 4 3 2 5 4 5 6 3 2 5 7 7
22 21 20 21 20 18 19 17 16 15 15 12 10 12 17 22 28 13 5 6 3 2 2 3 1 2 3 4 4 3 2 2 5 1 1 2 3 1 1 2 4 2 8 7 3 4 8 6 4 2 3 4 6 7
24 19 19 21 21 19 19 16 15 15 15 13 7 8 15 27 26 10 5 3 2 2 2 2 1 2 2 2 4 3 4 4 3 3 2 3 2 3 1 2 6 7 6 6 2 8 2 7 5 4 4 6 7 8
20 20 19 20 20 20 19 17 15 15 15 13 6 7 19 27 24 7 2 3 4 3 4 2 2 2 2 1 1 2 2 2 2 4 3 2 1 2 3 4 3 8 3 2 3 6 5 5 7 5 3 6 7 7
23 24 25 22 21 19 18 16 15 13 11 10 6 4 23 26 12 3 2 3 14 3 3 3 1 2 1 0 1 2 0 2 1 2 2 3 3 4 3 5 3 8 7 6 5 6 5 3 3 4 4 5 5 5
22 19 12 20 19 18 18 16 15 13 12 11 8 4 28 21 13 4 6 14 6 6 2 3 1 2 1 2 2 2 2 1 3 2 2 2 3 3 7 7 3 9 8 6 5 4 6 6 5 4 3 4 5 5
14 6 8 13 15 15 16 16 15 14 11 10 5 23 8 3 4 4 12 10 4 3 3 3 4 3 1 2 2 2 1 2 1 1 2 2 4 8 6 5 10 12 7 9 7 5 4 3 3 2 2 2 3 5
12 4 9 12 13 15 15 16 15 13 13 26 7 1 3 2 26 16 4 2 2 2 1 1 0 3 3 2 2 2 1 1 3 2 0 4 6 11 6 4 6 10 8 12 6 2 1 2 4 2 2 2 3 4
16 4 6 10 14 15 16 16 15 16 9 3 3 3 5 11 3 3 4 3 2 2 2 2 0 5 1 3 3 2 2 1 3 3 3 3 6 5 5 7 4 8 9 4 4 5 5 4 4 2 2 1 3 3
9 11 1 8 13 14 17 18 21 6 1 6 8 6 1 2 4 5 2 3 4 3 4 4 3 2 3 0 3 1 2 1 2 1 3 4 5 2 5 6 6 7 8 6 2 5 4 4 4 4 3 3 3 3
8 3 6 3 13 18 16 19 17 19 18 5 4 3 2 1 4 8 8 3 3 6 6 5 5 3 3 1 3 2 4 2 1 4 4 6 2 3 5 5 6 4 4 5 4 2 3 3 3 5 4 4 3 4
3 5 1 3 8 15 19 22 28 18 5 3 3 5 3 4 4 3 4 5 4 4 8 6 5 2 2 3 3 4 2 2 3 4 6 2 2 5 5 4 6 7 6 5 7 6 6 6 5 4 5 3 4 4
10 6 11 10 12 18 23 24 15 6 3 4 1 3 3 2 4 2 3 4 2 6 6 5 4 1 2 3 2 4 2 4 5 5 2 2 2 7 8 6 5 6 7 6 4 5 7 5 5 4 5 5 5 4
5 15 15 26 23 27 23 12 6 3 4 3 3 3 1 3 2 2 3 5 3 5 3 3 3 2 2 2 3 6 3 5 2 3 2 0 4 5 5 5 6 4 4 4 4 5 4 5 5 5 2 5 6 5
9 5 17 24 24 19 13 5 3 7 4 3 2 1 0 4 4 3 2 4 2 3 3 3 4 2 3 2 3 4 5 2 2 3 1 1 6 6 5 4 3 3 4 4 3 4 4 3 2 2 7 4 5 5
6 7 15 12 6 4 3 5 5 4 5 3 1 2 2 2 3 4 4 3 2 2 2 2 5 3 4 4 4 4 4 2 1 2 1 1 1 2 3 4 2 3 3 3 4 3 2 2 5 8 6 4 4 4
10 9 13 7 5 5 4 4 4 5 2 1 2 1 2 3 3 3 4 3 3 3 5 1 1 2 3 3 3 1 1 2 3 2 1 2 2 3 3 2 3 3 4 4 4 5 4 3 6 5 4 3 6 4
12 16 17 16 7 3 4 3 3 4 3 2 1 2 3 3 2 4 3 2 2 2 2 3 4 3 3 2 2 1 1 2 2 1 2 2 2 2 5 4 4 1 3 3 4 3 4 5 4 5 5 6 6 7
8 8 13 7 5 7 5 3 4 3 2 3 1 2 3 2 3 2 2 2 1 2 3 4 3 2 2 0 1 1 2 2 3 3 2 4 1 2 3 2 2 2 3 4 5 5 3 5 6 4 4 5 6 6
2 8 3 5 5 4 5 4 2 1 2 2 2 1 3 2 3 2 2 2 4 4 4 3 3 3 2 4 4 6 1 3 1 2 3 1 4 3 4 2 2 4 3 4 4 6 7 5 4 4 4 5 4 4
3 3 4 4 5 6 2 2 2 4 3 2 1 2 2 1 2 1 3 4 4 3 1 2 2 1 2 2 3 4 4 5 5 5 5 4 4 3 3 3 3 4 5 5 4 5 5 5 4 5 5 5 5 5
6 5 4 4 3 2 1 3 2 2 2 1 2 2 2 1 2 2 4 3 3 1 2 4 3 2 1 1 3 5 4 5 4 3 2 3 4 4 4 3 3 3 4 4 4 4 4 5 5 5 5 5 5 4
4 2 3 3 1 3 3 2 2 2 3 2 3 1 2 1 1 2 4 4 2 3 3 3 3 3 4 2 3 2 3 4 4 4 3 4 1 1 3 3 3 4 2 3 4 4 4 3 3 4 4 3 3 4
3 2 3 5 2 3 4 4 4 4 3 3 2 2 1 1 1 6 5 4 4 4 4 6 6 4 4 7 3 2 2 3 2 2 1 3 3 2 2 3 3 2 1 1 2 4 5 5 3 2 2 1 3 5
6 7 2 1 1 5 4 2 2 2 5 5 5 5 3 3 6 6 3 3 3 1 1 1 2 3 1 1 1 0 2 2 1 1 2 1 1 1 1 2 3 2 2 4 5 6 5 2 1 1 2 4 2 2
4 7 9 6 2 1 5 3 5 7 5 4 6 6 9 10 7 4 3 2 2 1 2 2 3 2 1 1 1 3 2 2 1 0 0 1 1 1 2 2 4 7 5 4 3 2 1 2 3 4 5 5 4 4
4 5 6 5 3 4 6 7 8 5 6 7 6 6 6 4 2 1 2 2 1 1 1 1 1 0 1 2 1 0 2 3 4 1 2 2 0 1 1 1 1 2 2 2 5 6 6 5 6 6 7 6 6 6
5 6 4 6 8 9 6 6 3 2 2 1 3 2 2 2 1 1 2 1 1 1 1 0 0 2 1 2 2 2 3 2 0 1 0 1 1 3 2 2 2 3 4 6 7 9 12 9 9 7 7 6 5 6
3 3 3 4 5 1 2 2 1 1 1 2 1 2 3 4 2 2 2 2 2 2 2 2 1 2 2 3 2 1 2 2 3 2 2 3 4 3 3 4 4 4 4 6 6 6 6 7 7 7 8 9 8 6
2 6 4 5 3 2 2 2 2 3 1 2 2 1 3 2 4 2 2 2 1 2 2 2 1 2 2 1 1 1 1 4 4 4 6 4 4 4 5 4 4 5 6 7 6 7 8 8 7 8 8 8 7 6
1 0 1 3 3 3 2 2 3 2 2 2 1 0 1 1 6 1 0 0 1 1 2 2 2 4 3 1 2 3 5 5 7 9 10 10 8 7 5 4 5 6 8 7 7 8 10 11 9 8 8 7 5 5
Wind_Direction
282 274 278 274 267 264 267 269 267 258 265 260 269 250 207 213 187 171 146 188 193 216 109 336 314 169 145 185 164 124 132 182 179 213 214 182 240 188 227 120 181 179 174 188 197 226 256 137 138 225 45 288 316 317
289 278 274 268 264 263 259 263 264 255 261 249 265 245 185 202 180 164 143 170 137 102 50 42 46 27 347 352 106 179 26 151 168 199 207 180 204 174 252 235 188 216 237 194 215 191 81 155 50 87 28 309 329 317
293 282 271 269 260 256 254 256 258 252 253 243 250 249 209 208 187 165 128 146 87 134 113 210 104 25 16 5 325 178 198 141 178 354 125 96 244 197 216 226 208 216 203 245 211 158 173 150 103 53 14 325 325 329
290 281 271 259 258 246 248 244 252 248 254 233 252 255 259 197 168 144 141 161 158 129 210 114 342 47 343 360 26 12 58 71 108 147 118 175 219 207 290 345 251 42 163 197 239 133 108 142 112 72 3 356 339 340
295 274 263 251 250 240 239 238 242 243 247 231 247 236 178 168 153 111 103 176 93 298 131 123 133 25 314 355 14 2 191 160 157 151 153 194 140 196 126 277 237 186 186 196 206 136 49 119 111 51 11 3 355 342
291 282 260 248 236 232 232 229 234 233 234 234 227 250 202 158 134 125 129 189 173 143 122 146 360 315 346 345 225 294 192 224 180 152 162 162 50 242 233 247 236 191 203 11 150 118 78 96 112 47 15 357 353 342
303 288 263 232 224 226 224 217 225 224 218 226 214 247 140 147 149 104 187 125 150 148 105 117 167 112 315 264 140 169 177 59 327 133 174 152 189 206 251 244 167 182 162 126 117 131 114 114 118 56 23 6 354 315
320 325 191 199 207 212 212 206 214 209 209 222 202 195 139 125 111 53 47 113 101 93 62 132 106 201 215 118 128 339 117 134 37 55 139 191 133 220 254 226 166 151 133 134 131 63 79 104 98 74 28 6 354 343
327 338 169 192 194 199 198 198 203 193 198 192 107 110 99 82 118 106 131 96 67 74 155 184 171 161 179 88 83 129 321 154 28 214 169 211 167 225 243 194 187 173 178 162 125 92 94 97 112 81 24 355 325 334
345 268 197 188 194 188 188 191 187 183 144 112 86 45 104 139 127 137 32 77 50 36 84 129 285 129 208 150 87 132 309 100 214 134 310 228 253 251 241 223 200 159 138 136 119 138 148 213 203 209 247 273 287 301
353 330 198 179 175 177 180 174 175 148 95 73 100 76 107 109 85 64 104 155 139 216 153 94 330 133 219 165 136 334 163 125 226 124 235 218 258 230 180 154 127 127 139 118 88 86 97 114 163 209 290 278 272 292
359 359 333 174 172 173 164 165 140 101 108 121 100 88 121 107 74 94 76 126 211 198 151 158 128 85 122 146 116 173 153 183 234 76 228 249 245 108 136 135 127 120 129 139 119 130 144 181 198 207 237 245 242 264
352 25 43 132 160 162 165 160 130 121 122 67 68 89 241 60 126 170 162 178 201 165 168 167 135 125 138 172 94 155 174 198 149 204 237 244 94 136 146 110 106 79 95 122 139 193 182 207 174 198 231 234 250 275
343 43 175 251 187 174 154 142 130 142 69 93 122 139 219 182 187 165 149 123 89 121 145 142 113 130 133 154 136 172 70 232 221 230 237 254 210 156 134 125 131 186 188 177 202 194 211 217 226 211 224 217 220 263
36 294 251 242 173 156 137 107 84 51 48 82 100 160 199 96 38 37 69 104 99 146 137 116 90 105 110 111 49 119 159 240 231 238 246 341 150 150 148 168 183 174 184 204 195 204 224 216 207 248 230 222 228 247
16 6 113 107 108 124 115 86 51 72 62 74 94 130 53 134 142 119 120 117 171 129 105 66 106 145 102 98 168 215 218 228 237 236 284 318 152 153 153 178 202 193 177 199 198 213 220 208 231 252 217 233 237 232
56 43 78 86 91 86 63 68 52 44 65 78 79 318 339 50 101 119 127 104 141 152 104 133 145 137 115 175 235 203 222 275 315 303 225 123 158 174 185 197 224 210 225 235 238 231 247 142 96 270 276 250 201 213
50 51 54 44 57 103 54 30 83 79 67 32 350 29 50 359 110 86 76 115 140 101 151 115 129 171 198 200 216 217 223 259 289 299 88 154 190 169 182 217 196 208 246 244 237 260 201 192 248 261 257 254 237 238
60 55 39 20 54 70 56 45 17 97 88 162 122 94 55 73 57 69 99 85 64 80 112 82 159 218 229 227 268 231 185 190 150 179 226 235 249 233 244 239 274 253 248 248 254 264 270 240 253 277 285 253 253 250
8 5 19 35 43 77 73 46 329 80 85 78 91 57 51 48 59 98 87 62 99 131 152 191 216 212 208 229 207 192 172 146 123 128 254 242 206 209 260 244 255 270 264 263 249 232 270 274 240 232 234 241 248 252
356 340 10 41 48 54 67 359 58 43 101 70 52 11 70 6 97 151 114 351 205 209 227 222 229 248 155 307 301 238 236 194 206 194 226 284 133 234 265 235 230 250 249 273 279 283 239 255 280 277 249 249 243 250
309 356 39 23 62 50 77 23 63 98 61 85 121 320 113 121 112 108 332 231 235 221 206 194 200 207 214 242 221 208 260 183 308 280 267 205 269 252 248 225 227 254 247 261 263 268 278 284 282 272 270 272 263 258
52 40 45 29 71 39 14 326 65 10 85 113 199 91 74 96 58 286 240 235 266 244 214 231 219 241 275 24 333 273 205 208 239 240 253 246 252 258 267 245 220 242 260 256 232 256 270 296 289 279 280 274 266 257
38 51 60 52 42 118 355 40 49 86 93 81 117 131 154 111 341 233 259 252 240 107 217 208 188 224 196 351 254 242 209 186 231 252 220 230 239 233 213 240 239 239 245 283 270 271 280 277 276 272 270 268 260 241
64 324 96 50 52 105 89 96 47 97 122 157 126 193 133 262 183 223 244 267 229 227 215 173 199 219 233 250 270 199 192 188 189 224 186 201 230 261 237 224 247 256 240 271 276 280 285 286 283 286 280 261 223 191
212 264 162 181 134 165 169 141 184 169 124 149 182 79 250 116 128 242 230 225 219 214 198 191 187 174 230 216 242 187 201 172 170 217 212 188 199 239 296 312 325 323 76 271 305 310 307 311 307 301 288 223 150 155
191 209 159 32 55 115 87 61 51 146 167 186 166 161 145 165 234 246 269 215 222 219 10 11 175 194 5 69 271 102 98 157 61 45 48 125 184 204 204 254 280 295 326 286 268 271 279 290 265 184 116 89 127 136
190 164 171 171 165 298 137 154 177 197 193 146 130 176 181 197 225 223 216 60 11 40 63 42 22 21 61 69 65 117 115 116 88 3 183 221 212 196 204 251 261 286 295 280 274 249 193 160 142 127 97 95 85 86
164 165 130 133 139 195 206 184 201 213 151 166 180 193 225 219 264 301 35 17 319 223 124 131 114 102 104 87 89 137 160 167 154 155 253 267 184 157 205 295 336 352 359 44 73 91 90 95 95 92 93 94 86 74
181 185 142 161 169 207 210 178 207 106 61 25 333 322 286 248 50 7 305 299 286 313 55 189 219 187 171 184 260 270 206 185 168 117 310 271 82 98 95 84 74 53 54 69 70 67 76 83 95 89 88 87 82 84
120 157 145 166 216 94 56 40 89 40 126 106 68 271 274 327 320 38 11 352 317 294 265 247 257 198 179 198 200 91 314 146 156 167 91 96 102 93 88 81 78 80 83 84 83 88 96 90 90 95 90 85 76 74
187 195 177 181 181 90 163 184 163 193 150 192 175 323 304 328 275 133 8 297 300 283 324 9 307 285 269 234 311 320 281 131 141 127 120 105 98 95 95 91 88 90 91 92 95 100 92 91 89 86 87 80 75 72
248 54 56 124 145 155 151 163 184 178 204 226 213 134 262 247 246 360 56 175 341 294 294 315 299 289 269 207 109 96 92 102 115 112 112 108 108 103 92 87 88 94 94 90 86 89 91 94 91 87 84 87 81 63